Weather History for Rolla, ND

Change the Weather History Date:

Friday, May 4, 2012

  Actual Average (KRUG) Record (KRUG)
Temperature  
Mean Temperature 42 °F -  
Max Temperature 48 °F 65 °F 87 °F (1952)
Min Temperature 35 °F 39 °F 20 °F (1967)
Degree Days  
Heating Degree Days 24    
Moisture  
Dew Point 43 °F    
Average Humidity 100    
Maximum Humidity 100    
Minimum Humidity 100    
Precipitation  
Precipitation 0.22 in - - ()
Sea Level Pressure  
Sea Level Pressure 30.03 in    
Wind  
Wind Speed 8 mph (East)    
Max Wind Speed 15 mph    
Max Gust Speed 21 mph    
Visibility 9 miles    
Events Rain    
Averages and records for this station are not official NWS values.
T = Trace of Precipitation, MM = Missing Value Source: NWS Daily Summary

Daily Weather History Graph

Daily Weather History Graph

Search for Another Location

Airport:

Trip Planner

Search our weather history database for the weather conditions in past years. The results will help you decide how hot, cold, wet, or windy it might be!

Date:

Astronomy

May. 04, 2012 Rise Set
Actual Time 6:12 AM CDT 8:59 PM CDT
Civil Twilight 5:35 AM CDT 9:35 PM CDT
Nautical Twilight 4:49 AM CDT 10:22 PM CDT
Astronomical Twilight 3:54 AM CDT 11:17 PM CDT
Moon 7:36 PM CDT (5/4) 5:01 AM CDT (5/4)
Length of Visible Light 15h 59m
Length of Day
14h 47m
Waxing Gibbous, 97% of the Moon is Illuminated
May 4
Waxing Gibbous
May 5
Full
May 12
Last Quarter
May 20
New
May 28
First Quarter

Hourly Weather History & Observations

Time (CDT) Temp. Windchill Dew Point Humidity Pressure Visibility Wind Dir Wind Speed Gust Speed Precip Events Conditions
12:15 AM 39.2 °F 34.2 °F 39.2 °F 100% 30.09 in 10.0 mi NE 6.9 mph - N/A Rain Light Rain
12:35 AM 39.2 °F 33.6 °F 39.2 °F 100% 30.08 in 10.0 mi NE 8.1 mph - N/A Rain Light Rain
12:55 AM 39.2 °F 33.6 °F 39.2 °F 100% 30.09 in 10.0 mi NE 8.1 mph - 0.01 in Rain Light Rain
1:15 AM 39.2 °F 35.0 °F 39.2 °F 100% 30.08 in 10.0 mi NE 5.8 mph - N/A Rain Light Rain
1:35 AM 37.4 °F 32.8 °F 37.4 °F 100% 30.08 in 10.0 mi ENE 5.8 mph - N/A Rain Light Rain
1:55 AM 37.4 °F 32.8 °F 37.4 °F 100% 30.07 in 10.0 mi ENE 5.8 mph - 0.01 in Rain Light Rain
2:15 AM 37.4 °F 31.4 °F 37.4 °F 100% 30.06 in 10.0 mi ENE 8.1 mph - N/A Rain Light Rain
2:35 AM 37.4 °F 29.8 °F 37.4 °F 100% 30.06 in 10.0 mi ENE 11.5 mph - N/A Rain Light Rain
2:55 AM 37.4 °F 31.4 °F 37.4 °F 100% 30.06 in 10.0 mi ENE 8.1 mph - N/A Rain Light Rain
3:15 AM 37.4 °F 31.4 °F 37.4 °F 100% 30.06 in 10.0 mi ENE 8.1 mph - N/A Rain Light Rain
3:35 AM 37.4 °F 33.8 °F 37.4 °F 100% 30.07 in 10.0 mi ENE 4.6 mph - N/A Rain Light Rain
3:55 AM 37.4 °F 32.8 °F 37.4 °F 100% 30.06 in 10.0 mi ENE 5.8 mph - N/A Rain Light Rain
4:15 AM 37.4 °F 32.1 °F 37.4 °F 100% 30.06 in 10.0 mi ENE 6.9 mph - N/A Rain Light Rain
4:35 AM 37.4 °F 32.8 °F 37.4 °F 100% 30.06 in 10.0 mi NE 5.8 mph - N/A Rain Light Rain
4:55 AM 37.4 °F 32.8 °F 37.4 °F 100% 30.06 in 10.0 mi NNE 5.8 mph - N/A Rain Light Rain
5:15 AM 37.4 °F 32.8 °F 37.4 °F 100% 30.05 in 10.0 mi NNE 5.8 mph - N/A Rain Light Rain
5:55 AM 35.6 °F 30.7 °F 35.6 °F 100% 30.04 in 10.0 mi NE 5.8 mph - 0.01 in Rain Light Rain
6:15 AM 35.6 °F 30.7 °F 35.6 °F 100% 30.04 in 10.0 mi NE 5.8 mph - N/A Rain Light Rain
6:55 AM 35.6 °F 31.7 °F 35.6 °F 100% 30.05 in 10.0 mi NNE 4.6 mph - N/A Rain Light Rain
7:15 AM 37.4 °F 33.8 °F 37.4 °F 100% 30.05 in 10.0 mi NE 4.6 mph - N/A Rain Light Rain
7:35 AM 37.4 °F 32.8 °F 37.4 °F 100% 30.04 in 10.0 mi East 5.8 mph - N/A Rain Light Rain
7:55 AM 39.2 °F 34.2 °F 39.2 °F 100% 30.04 in 10.0 mi ESE 6.9 mph - 0.01 in Rain Light Rain
8:15 AM 39.2 °F 32.5 °F 39.2 °F 100% 30.04 in 10.0 mi East 10.4 mph - N/A Rain Light Rain
8:35 AM 39.2 °F 32.5 °F 39.2 °F 100% 30.04 in 10.0 mi East 10.4 mph - 0.01 in Rain Light Rain
8:55 AM 41.0 °F 35.8 °F 41.0 °F 100% 30.05 in 10.0 mi East 8.1 mph - 0.01 in Rain Light Rain
9:15 AM 41.0 °F 36.4 °F 41.0 °F 100% 30.05 in 10.0 mi East 6.9 mph - N/A Rain Light Rain
9:35 AM 41.0 °F 35.8 °F 41.0 °F 100% 30.06 in 10.0 mi East 8.1 mph - 0.01 in Rain Light Rain
9:55 AM 41.0 °F 34.7 °F 41.0 °F 100% 30.06 in 10.0 mi East 10.4 mph - 0.01 in Rain Light Rain
10:15 AM 41.0 °F 34.3 °F 41.0 °F 100% 30.05 in 10.0 mi East 11.5 mph - N/A Rain Light Rain
10:35 AM 41.0 °F 34.3 °F 41.0 °F 100% 30.06 in 10.0 mi East 11.5 mph - 0.01 in Rain Light Rain
10:55 AM 42.8 °F 36.6 °F 42.8 °F 100% 30.05 in 10.0 mi East 11.5 mph - 0.02 in Rain Light Rain
11:15 AM 42.8 °F 36.2 °F 42.8 °F 100% 30.04 in 10.0 mi East 12.7 mph - N/A Rain Light Rain
11:35 AM 44.6 °F 39.2 °F 44.6 °F 100% 30.04 in 10.0 mi East 10.4 mph - 0.01 in Rain Light Rain
11:55 AM 44.6 °F 38.8 °F 44.6 °F 100% 30.04 in 10.0 mi ESE 11.5 mph - 0.02 in Rain Light Rain
12:15 PM 44.6 °F 38.8 °F 44.6 °F 100% 30.04 in 10.0 mi ESE 11.5 mph - N/A Rain Light Rain
12:35 PM 46.4 °F 41.9 °F 46.4 °F 100% 30.04 in 10.0 mi ESE 9.2 mph - 0.01 in Rain Light Rain
12:55 PM 46.4 °F 40.7 °F 46.4 °F 100% 30.04 in 8.0 mi ESE 12.7 mph - 0.01 in Rain Light Rain
1:15 PM 46.4 °F 40.7 °F 46.4 °F 100% 30.03 in 10.0 mi ESE 12.7 mph - N/A Rain Light Rain
1:35 PM 48.2 °F - 48.2 °F 100% 30.02 in 10.0 mi ESE 12.7 mph - 0.01 in Rain Light Rain
1:55 PM 48.2 °F - 48.2 °F 100% 30.02 in 10.0 mi ESE 12.7 mph - 0.01 in Rain Light Rain
2:15 PM 48.2 °F - 48.2 °F 100% 30.02 in 10.0 mi ESE 12.7 mph - N/A Rain Light Rain
2:35 PM 48.2 °F - 48.2 °F 100% 30.01 in 10.0 mi East 11.5 mph - N/A Rain Light Rain
3:15 PM 48.2 °F - 48.2 °F 100% 29.99 in 10.0 mi East 15.0 mph 20.7 mph N/A Rain Light Rain
3:35 PM 48.2 °F - 48.2 °F 100% 29.99 in 10.0 mi East 12.7 mph - 0.01 in Rain Light Rain
3:55 PM 46.4 °F 40.4 °F 46.4 °F 100% 29.99 in 10.0 mi East 13.8 mph 18.4 mph 0.01 in Rain Light Rain
4:15 PM 46.4 °F 40.7 °F 46.4 °F 100% 29.99 in 10.0 mi East 12.7 mph - N/A Rain Light Rain
4:35 PM 46.4 °F 40.4 °F 46.4 °F 100% 29.98 in 10.0 mi East 13.8 mph 19.6 mph N/A Rain Light Rain
4:55 PM 46.4 °F 40.4 °F 46.4 °F 100% 29.97 in 10.0 mi East 13.8 mph - 0.01 in Rain Light Rain
5:15 PM 46.4 °F 40.7 °F 46.4 °F 100% 29.97 in 10.0 mi East 12.7 mph - N/A Rain Light Rain
5:35 PM 46.4 °F 41.5 °F 46.4 °F 100% 29.98 in 10.0 mi East 10.4 mph 17.3 mph N/A Rain Light Rain
5:55 PM 46.4 °F 41.1 °F 46.4 °F 100% 29.98 in 10.0 mi ESE 11.5 mph - 0.01 in Rain Light Rain
6:15 PM 48.2 °F - 48.2 °F 100% 29.98 in 9.0 mi East 10.4 mph - N/A Rain Light Rain
6:35 PM 48.2 °F - 48.2 °F 100% 29.99 in 5.0 mi ESE 12.7 mph 16.1 mph N/A Rain Light Rain
6:55 PM 46.4 °F 41.5 °F 46.4 °F 100% 29.99 in 1.8 mi ESE 10.4 mph - 0.01 in Rain Light Rain
7:15 PM 46.4 °F 41.1 °F 46.4 °F 100% 29.99 in 1.5 mi East 11.5 mph - N/A Rain Light Rain
7:35 PM 46.4 °F 41.5 °F 46.4 °F 100% 29.99 in 1.2 mi East 10.4 mph - 0.01 in Rain Light Rain
7:55 PM 46.4 °F 41.5 °F 46.4 °F 100% 29.99 in 2.0 mi ESE 10.4 mph - 0.02 in Rain Light Rain
8:15 PM 46.4 °F 42.4 °F 46.4 °F 100% 29.99 in 5.0 mi East 8.1 mph - N/A Rain Light Rain
8:35 PM 46.4 °F 43.5 °F 46.4 °F 100% 29.99 in 3.0 mi East 5.8 mph - 0.01 in Rain Light Rain
8:55 PM 46.4 °F 45.2 °F 46.4 °F 100% 29.99 in 10.0 mi ENE 3.5 mph - 0.01 in Rain Light Rain
9:15 PM 46.4 °F 42.9 °F 46.4 °F 100% 29.99 in 10.0 mi East 6.9 mph - N/A Rain Light Rain
9:35 PM 46.4 °F 45.2 °F 46.4 °F 100% 30.00 in 10.0 mi East 3.5 mph - N/A Rain Light Rain
9:55 PM 46.4 °F 43.5 °F 46.4 °F 100% 30.00 in 10.0 mi ESE 5.8 mph - 0.01 in Rain Light Rain
10:15 PM 46.4 °F - 46.4 °F 100% 30.00 in 10.0 mi Calm Calm - N/A Rain Light Rain
10:35 PM 46.4 °F 45.2 °F 46.4 °F 100% 30.01 in 10.0 mi NE 3.5 mph - N/A Rain Light Rain
10:55 PM 46.4 °F 44.3 °F 46.4 °F 100% 30.00 in 10.0 mi NE 4.6 mph - 0.01 in Rain Light Rain
11:15 PM 46.4 °F 44.3 °F 46.4 °F 100% 30.00 in 10.0 mi ENE 4.6 mph - N/A Rain Light Rain
11:35 PM 46.4 °F 45.2 °F 46.4 °F 100% 30.01 in 10.0 mi NNE 3.5 mph - N/A Rain Light Rain
11:55 PM 46.4 °F 45.2 °F 46.4 °F 100% 30.00 in 10.0 mi ENE 3.5 mph - 0.01 in Rain Light Rain